< < Back
Terminal Aerodrome Forecast


Current Version              Previous Versions:   1  2  3  4  5  6  7  8  9  

Terminal Aerodrome Forecast

363
FTUS42 KTAE 282327
TAFABY
TAF
KABY 282327Z 2900/2924 10010KT 5SM TSRA BKN035CB
     FM290100 09004KT P6SM SCT200
     FM291500 11007KT P6SM VCTS BKN040CB
     FM291800 11007KT 5SM TSRA BKN040CB=

Latest METAR

712
SAUS70 KWBC 292100 RRF
MTRABY
METAR KABY 292053Z 07004KT 10SM FEW095 28/21 A3009 RMK AO2 SLP187 60005
T02830211 56019


USA.gov is the U.S. government's official web portal to all federal, state and local government web resources and services.